FW2343 Weather Reports


Display with metric or nautical units.
time (UTC)temp
F
wind
direction
speed
MPH
gust
MPH
rain 1hr
in
rain 24hr
in
rain mn
in
humidity
%
barometer
mb
20260901134210 87 15 1.0 14.0 0.00 0.00 0.00 39 1017.8
20260901133708 87 326 2.0 14.0 0.00 0.00 0.00 39 1018.2
20260901132213 87 288 3.0 8.0 0.00 0.00 0.00 40 1018.3
20260901130711 86 0 0.0 7.0 0.00 0.00 0.00 40 1018.5
20260901130212 86 22 2.0 7.0 0.00 0.00 0.00 40 1018.6
20260901125706 86 239 3.0 6.0 0.00 0.00 0.00 41 1018.6
20260901125207 87 299 1.0 6.0 0.00 0.00 0.00 40 1018.6
20260901124719 87 274 1.0 8.0 0.00 0.00 0.00 41 1018.7
20260901124212 86 309 1.0 9.0 0.00 0.00 0.00 41 1018.8
20260901122217 85 268 2.0 9.0 0.00 0.00 0.00 42 1018.9
20260901121706 85 288 2.0 9.0 0.00 0.00 0.00 42 1019.1
20260901121211 85 286 3.0 7.0 0.00 0.00 0.00 43 1019.1
20260901120713 85 268 2.0 7.0 0.00 0.00 0.00 43 1019.1
20260901120205 84 327 2.0 6.0 0.00 0.00 0.00 46 1019.1
20260901115714 83 340 2.0 9.0 0.00 0.00 0.00 44 1019.3
20260901115212 83 277 0.0 9.0 0.00 0.00 0.00 45 1019.4
20260901114715 83 185 2.0 9.0 0.00 0.00 0.00 45 1019.4
20260901114212 83 187 4.0 9.0 0.00 0.00 0.00 45 1019.5
20260901113709 83 230 4.0 9.0 0.00 0.00 0.00 45 1019.6
20260901112716 83 23 4.0 8.0 0.00 0.00 0.00 45 1019.7
20260901112215 82 323 2.0 8.0 0.00 0.00 0.00 45 1019.7
20260901111718 83 307 2.0 8.0 0.00 0.00 0.00 45 1019.9
20260901111205 83 274 2.0 8.0 0.00 0.00 0.00 44 1019.8
20260901110719 83 267 1.0 8.0 0.00 0.00 0.00 44 1019.9
20260901105710 82 282 3.0 6.0 0.00 0.00 0.00 45 1020.1
20260901105208 81 265 2.0 6.0 0.00 0.00 0.00 45 1020.1
20260901104713 81 291 1.0 6.0 0.00 0.00 0.00 46 1020.3
20260901104218 81 35 1.0 6.0 0.00 0.00 0.00 49 1020.5
20260901103734 80 313 1.0 7.0 0.00 0.00 0.00 48 1020.5
20260901103210 80 355 2.0 8.0 0.00 0.00 0.00 50 1020.5
20260901102710 79 29 1.0 8.0 0.00 0.00 0.00 49 1020.6
20260901102216 79 334 3.0 8.0 0.00 0.00 0.00 49 1020.6
20260901101715 79 345 2.0 7.0 0.00 0.00 0.00 49 1020.6
20260901101217 80 319 2.0 8.0 0.00 0.00 0.00 48 1020.6
20260901100710 80 160 0.0 8.0 0.00 0.00 0.00 50 1020.7
20260901095709 79 18 2.0 4.0 0.00 0.00 0.00 52 1020.8
20260901095215 79 0 0.0 6.0 0.00 0.00 0.00 51 1020.8
20260901094708 79 177 1.0 7.0 0.00 0.00 0.00 52 1020.9
20260901094210 78 172 0.0 7.0 0.00 0.00 0.00 52 1020.9
20260901093210 78 140 1.0 5.0 0.00 0.00 0.00 52 1021.0
20260901092710 78 112 1.0 5.0 0.00 0.00 0.00 54 1021.0
20260901092206 77 47 2.0 4.0 0.00 0.00 0.00 55 1021.0
20260901091714 77 289 0.0 4.0 0.00 0.00 0.00 55 1021.0
20260901091213 77 343 0.0 4.0 0.00 0.00 0.00 55 1021.0
20260901090712 76 11 0.0 3.0 0.00 0.00 0.00 56 1021.0
20260901085707 77 187 0.0 3.0 0.00 0.00 0.00 56 1021.1
20260901085218 76 181 0.0 3.0 0.00 0.00 0.00 58 1021.1
20260901084707 76 67 0.0 3.0 0.00 0.00 0.00 58 1021.1
20260901084208 75 178 0.0 3.0 0.00 0.00 0.00 59 1021.0
20260901083718 75 177 1.0 3.0 0.00 0.00 0.00 60 1021.1
20260901083214 74 185 1.0 3.0 0.00 0.00 0.00 60 1021.1
20260901082710 74 105 1.0 3.0 0.00 0.00 0.00 61 1021.1
20260901082206 74 157 1.0 3.0 0.00 0.00 0.00 62 1021.1
20260901081229 73 0 0.0 2.0 0.00 0.00 0.00 63 1021.0
20260901080715 72 196 0.0 0.0 0.00 0.00 0.00 64 1021.1
20260901080216 72 0 0.0 0.0 0.00 0.00 0.00 64 1021.2
20260901075710 71 0 0.0 2.0 0.00 0.00 0.00 65 1021.1
20260901075208 71 0 0.0 2.0 0.00 0.00 0.00 66 1021.3
20260901074717 71 0 0.0 2.0 0.00 0.00 0.00 66 1021.3
20260901073713 69 174 0.0 2.0 0.00 0.00 0.00 70 1021.4
20260901073209 68 202 0.0 2.0 0.00 0.00 0.00 71 1021.4
20260901072715 67 217 0.0 2.0 0.00 0.00 0.00 71 1021.4
20260901072210 67 0 0.0 2.0 0.00 0.00 0.00 72 1021.3
20260901071706 67 116 0.0 1.0 0.00 0.00 0.00 72 1021.4
20260901070717 65 0 0.0 2.0 0.00 0.00 0.00 74 1021.4
20260901070210 65 213 0.0 3.0 0.00 0.00 0.00 75 1021.4
20260901064712 64 250 1.0 4.0 0.00 0.00 0.00 77 1021.2
20260901063219 62 213 2.0 5.0 0.00 0.00 0.00 79 1021.3
20260901062718 62 199 1.0 5.0 0.00 0.00 0.00 80 1021.2
20260901062215 62 195 1.0 5.0 0.00 0.00 0.00 80 1021.2
20260901061719 62 206 2.0 4.0 0.00 0.00 0.00 80 1021.1
20260901061218 61 177 2.0 4.0 0.00 0.00 0.00 81 1021.2
20260901060707 61 220 2.0 4.0 0.00 0.00 0.00 81 1021.2
20260901060205 61 194 2.0 4.0 0.00 0.00 0.00 81 1021.2
20260901055712 61 194 2.0 3.0 0.00 0.00 0.00 82 1021.1
20260901055205 61 222 2.0 3.0 0.00 0.00 0.00 82 1021.1
20260901054707 60 243 2.0 3.0 0.00 0.00 0.00 82 1021.0
20260901054215 60 219 2.0 3.0 0.00 0.00 0.00 82 1021.0
20260901053717 60 241 1.0 3.0 0.00 0.00 0.00 82 1021.0
20260901053207 60 275 1.0 3.0 0.00 0.00 0.00 82 1021.0
20260901052708 60 261 2.0 3.0 0.00 0.00 0.00 82 1021.0
20260901052218 60 248 0.0 3.0 0.00 0.00 0.00 82 1021.0
20260901051706 60 240 2.0 3.0 0.00 0.00 0.00 82 1021.1
20260901051211 60 258 2.0 3.0 0.00 0.00 0.00 83 1021.0
20260901050707 60 250 1.0 3.0 0.00 0.00 0.00 83 1021.0
20260901050208 60 258 2.0 3.0 0.00 0.00 0.00 83 1021.0
20260901045715 60 264 2.0 3.0 0.00 0.00 0.00 83 1021.1
20260901045211 60 260 2.0 3.0 0.00 0.00 0.00 83 1021.1
20260901044710 60 250 2.0 4.0 0.00 0.00 0.00 83 1021.2
20260901044204 60 250 2.0 4.0 0.00 0.00 0.00 83 1021.1
20260901043719 60 261 2.0 4.0 0.00 0.00 0.00 83 1021.1
20260901043219 60 229 2.0 3.0 0.00 0.00 0.00 82 1021.2
20260901042714 60 254 2.0 4.0 0.00 0.00 0.00 82 1021.2
20260901042209 60 222 1.0 4.0 0.00 0.00 0.00 82 1021.1
20260901041715 60 212 2.0 4.0 0.00 0.00 0.00 82 1021.0
20260901040207 60 213 2.0 4.0 0.00 0.00 0.00 82 1021.1
20260901035716 60 247 2.0 4.0 0.00 0.00 0.00 82 1021.0
20260901035205 60 226 2.0 4.0 0.00 0.00 0.00 82 1021.0
20260901034711 60 222 2.0 4.0 0.00 0.00 0.00 82 1021.1
20260901033729 60 233 2.0 4.0 0.00 0.00 0.00 82 1021.1
20260901033206 60 247 3.0 4.0 0.00 0.00 0.00 82 1021.2
20260901032716 60 230 2.0 4.0 0.00 0.00 0.00 82 1021.3
20260901032214 61 225 2.0 4.0 0.00 0.00 0.00 81 1021.3
20260901031710 61 219 2.0 3.0 0.00 0.00 0.00 81 1021.3
20260901031219 61 255 2.0 2.0 0.00 0.00 0.00 81 1021.2
20260901030711 61 233 2.0 2.0 0.00 0.00 0.00 81 1021.3
20260901030214 61 225 1.0 2.0 0.00 0.00 0.00 80 1021.4
20260901025707 61 237 1.0 1.0 0.00 0.00 0.00 80 1021.4
20260901025207 61 225 0.0 1.0 0.00 0.00 0.00 80 1021.4
20260901024712 61 233 0.0 0.0 0.00 0.00 0.00 80 1021.4
20260901024207 61 0 0.0 0.0 0.00 0.00 0.00 80 1021.4
20260901023716 62 0 0.0 2.0 0.00 0.00 0.00 80 1021.4
20260901023215 62 0 0.0 2.0 0.00 0.00 0.00 80 1021.4
20260901022706 62 0 0.0 2.0 0.00 0.00 0.00 80 1021.4
20260901022205 62 240 0.0 1.0 0.00 0.00 0.00 80 1021.4
20260901021713 62 0 0.0 1.0 0.00 0.00 0.00 80 1021.6
20260901021217 62 217 0.0 0.0 0.00 0.00 0.00 80 1021.5
20260901020731 62 0 0.0 0.0 0.00 0.00 0.00 79 1021.5
20260901020215 62 0 0.0 1.0 0.00 0.00 0.00 79 1021.4
20260901015210 62 0 0.0 1.0 0.00 0.00 0.00 79 1021.3
20260901014706 62 236 0.0 0.0 0.00 0.00 0.00 79 1021.4
20260901014209 62 0 0.0 0.0 0.00 0.00 0.00 79 1021.5
20260901013207 62 0 0.0 1.0 0.00 0.00 0.00 79 1021.4
20260901012705 62 0 0.0 1.0 0.00 0.00 0.00 79 1021.4
20260901012218 62 254 0.0 1.0 0.00 0.00 0.00 79 1021.3
20260901011718 62 196 0.0 0.0 0.00 0.00 0.00 79 1021.4
20260901011215 62 0 0.0 0.0 0.00 0.00 0.00 79 1021.5
20260901010716 62 0 0.0 0.0 0.00 0.00 0.00 79 1021.5
20260901010210 62 0 0.0 0.0 0.00 0.00 0.00 79 1021.6
20260901005716 62 0 0.0 0.0 0.00 0.00 0.00 79 1021.6
20260901005209 62 0 0.0 0.0 0.00 0.00 0.00 79 1021.6
20260901004709 62 0 0.0 0.0 0.00 0.00 0.00 79 1021.7
20260901004210 62 0 0.0 0.0 0.00 0.00 0.00 79 1021.8
20260901003719 62 0 0.0 0.0 0.00 0.00 0.00 79 1021.9
20260901003215 62 0 0.0 0.0 0.00 0.00 0.00 79 1022.0
20260901002714 62 0 0.0 0.0 0.00 0.00 0.00 79 1022.1
20260901001714 63 0 0.0 0.0 0.00 0.00 0.00 78 1022.1
20260901001214 63 0 0.0 0.0 0.00 0.00 0.00 78 1022.1
20260901000717 63 0 0.0 0.0 0.00 0.00 0.00 78 1022.2
20260901000219 63 0 0.0 0.0 0.00 0.00 0.00 78 1022.1
20260831235710 63 0 0.0 0.0 0.00 0.00 0.00 78 1022.2
20260831235212 64 0 0.0 0.0 0.00 0.00 0.00 78 1022.2
20260831234706 64 0 0.0 0.0 0.00 0.00 0.00 78 1022.3
20260831234212 64 0 0.0 0.0 0.00 0.00 0.00 77 1022.2
20260831233707 64 0 0.0 0.0 0.00 0.00 0.00 77 1022.2
20260831233214 64 0 0.0 0.0 0.00 0.00 0.00 77 1022.2
20260831232715 64 0 0.0 0.0 0.00 0.00 0.00 77 1022.3
20260831232211 64 0 0.0 0.0 0.00 0.00 0.00 77 1022.3
20260831231712 64 0 0.0 0.0 0.00 0.00 0.00 77 1022.3
20260831230240 64 0 0.0 0.0 0.00 0.00 0.00 77 1022.4
20260831225719 64 0 0.0 0.0 0.00 0.00 0.00 77 1022.3
20260831225217 64 0 0.0 0.0 0.00 0.00 0.00 77 1022.4
20260831224717 64 0 0.0 1.0 0.00 0.00 0.00 77 1022.4
20260831223716 65 0 0.0 1.0 0.00 0.00 0.00 76 1022.4
20260831223213 65 225 0.0 0.0 0.00 0.00 0.00 76 1022.5
20260831222714 65 0 0.0 0.0 0.00 0.00 0.00 76 1022.4
20260831222214 65 0 0.0 0.0 0.00 0.00 0.00 75 1022.4
20260831221711 65 0 0.0 0.0 0.00 0.00 0.00 75 1022.3
20260831221206 65 0 0.0 0.0 0.00 0.00 0.00 76 1022.3
20260831220706 65 0 0.0 0.0 0.00 0.00 0.00 75 1022.3
20260831220207 65 0 0.0 0.0 0.00 0.00 0.00 75 1022.4
20260831215208 66 0 0.0 0.0 0.00 0.00 0.00 75 1022.3
20260831214708 66 0 0.0 0.0 0.00 0.00 0.00 74 1022.2
20260831213716 66 0 0.0 0.0 0.00 0.00 0.00 75 1022.2
20260831213215 66 0 0.0 0.0 0.00 0.00 0.00 74 1022.1
20260831212712 66 0 0.0 0.0 0.00 0.00 0.00 74 1022.2
20260831212217 67 0 0.0 0.0 0.00 0.00 0.00 73 1022.2
20260831211712 67 0 0.0 0.0 0.00 0.00 0.00 73 1022.2
20260831211214 67 0 0.0 0.0 0.00 0.00 0.00 73 1022.1
20260831210217 67 0 0.0 0.0 0.00 0.00 0.00 72 1022.1
20260831205706 68 0 0.0 0.0 0.00 0.00 0.00 72 1022.2
20260831205210 68 0 0.0 0.0 0.00 0.00 0.00 71 1022.2
20260831204715 68 0 0.0 0.0 0.00 0.00 0.00 71 1022.2
20260831204218 68 0 0.0 0.0 0.00 0.00 0.00 71 1022.1
20260831203708 69 0 0.0 0.0 0.00 0.00 0.00 70 1022.0
20260831203216 69 0 0.0 0.0 0.00 0.00 0.00 70 1022.1
20260831202205 69 0 0.0 0.0 0.00 0.00 0.00 69 1022.0
20260831201717 70 0 0.0 0.0 0.00 0.00 0.00 68 1021.8
20260831201218 70 0 0.0 0.0 0.00 0.00 0.00 68 1021.8
20260831200204 71 0 0.0 0.0 0.00 0.00 0.00 67 1021.8
20260831195714 71 0 0.0 0.0 0.00 0.00 0.00 67 1021.7
20260831195218 71 0 0.0 2.0 0.00 0.00 0.00 66 1021.6
20260831194717 72 0 0.0 2.0 0.00 0.00 0.00 65 1021.7
20260831194208 72 0 0.0 2.0 0.00 0.00 0.00 65 1021.6
20260831193706 72 171 0.0 2.0 0.00 0.00 0.00 65 1021.6
20260831192714 72 209 0.0 4.0 0.00 0.00 0.00 64 1021.5
20260831192216 73 212 1.0 4.0 0.00 0.00 0.00 64 1021.4
20260831191206 73 194 1.0 6.0 0.00 0.00 0.00 63 1021.3
20260831190712 73 219 1.0 7.0 0.00 0.00 0.00 63 1021.3
20260831190212 74 209 2.0 7.0 0.00 0.00 0.00 62 1021.2
20260831185713 74 217 2.0 7.0 0.00 0.00 0.00 62 1021.2
20260831185213 74 216 3.0 6.0 0.00 0.00 0.00 62 1021.1
20260831184712 74 230 2.0 6.0 0.00 0.00 0.00 61 1021.1
20260831184207 74 222 2.0 10.0 0.00 0.00 0.00 61 1021.1
20260831183707 75 226 2.0 10.0 0.00 0.00 0.00 60 1021.0
20260831183209 75 233 2.0 10.0 0.00 0.00 0.00 60 1021.0
20260831182707 75 268 4.0 10.0 0.00 0.00 0.00 59 1021.0
20260831182204 76 271 5.0 10.0 0.00 0.00 0.00 58 1021.0
20260831181706 76 264 5.0 11.0 0.00 0.00 0.00 57 1021.0
20260831181246 76 267 3.0 11.0 0.00 0.00 0.00 56 1021.0
20260831180208 77 254 5.0 11.0 0.00 0.00 0.00 55 1021.0
20260831175709 77 240 4.0 10.0 0.00 0.00 0.00 55 1021.1
20260831175219 77 285 2.0 10.0 0.00 0.00 0.00 54 1021.0
20260831174709 77 258 4.0 11.0 0.00 0.00 0.00 52 1020.9
20260831174212 78 253 4.0 13.0 0.00 0.00 0.00 51 1021.0
20260831173717 78 271 3.0 13.0 0.00 0.00 0.00 52 1021.0
20260831171718 78 239 4.0 15.0 0.00 0.00 0.00 52 1020.9
20260831171208 78 258 7.0 13.0 0.00 0.00 0.00 53 1021.0
20260831170215 78 264 5.0 12.0 0.00 0.00 0.00 52 1020.9
20260831165706 78 234 6.0 15.0 0.00 0.00 0.00 52 1020.9
20260831165215 78 236 4.0 15.0 0.00 0.00 0.00 52 1020.9
20260831164709 79 264 5.0 15.0 0.00 0.00 0.00 52 1020.9
20260831164208 78 223 5.0 13.0 0.00 0.00 0.00 52 1020.9
20260831163206 79 281 6.0 13.0 0.00 0.00 0.00 52 1021.0
20260831162716 79 261 3.0 13.0 0.00 0.00 0.00 52 1021.0
20260831162210 79 247 5.0 14.0 0.00 0.00 0.00 53 1021.0
20260831161719 78 291 5.0 14.0 0.00 0.00 0.00 53 1021.1
20260831161209 79 272 5.0 14.0 0.00 0.00 0.00 52 1021.1
20260831160709 79 247 6.0 14.0 0.00 0.00 0.00 51 1021.1
20260831160239 78 257 7.0 11.0 0.00 0.00 0.00 52 1021.3
20260831155713 78 296 5.0 11.0 0.00 0.00 0.00 52 1021.2
20260831155209 79 234 5.0 14.0 0.00 0.00 0.00 52 1021.1
20260831154715 79 285 4.0 14.0 0.00 0.00 0.00 52 1021.2
20260831154207 78 281 5.0 14.0 0.00 0.00 0.00 53 1021.2
20260831153715 78 258 8.0 12.0 0.00 0.00 0.00 54 1021.2
20260831153219 78 250 5.0 13.0 0.00 0.00 0.00 52 1021.3
20260831152710 79 303 3.0 15.0 0.00 0.00 0.00 52 1021.4
20260831152214 79 285 6.0 15.0 0.00 0.00 0.00 53 1021.4
20260831151706 78 229 7.0 15.0 0.00 0.00 0.00 55 1021.5
20260831151213 78 232 5.0 14.0 0.00 0.00 0.00 55 1021.5
20260831150715 78 278 5.0 14.0 0.00 0.00 0.00 54 1021.6
20260831150206 78 246 6.0 13.0 0.00 0.00 0.00 55 1021.6
20260831145713 77 271 8.0 13.0 0.00 0.00 0.00 56 1021.6
20260831144708 77 284 6.0 16.0 0.00 0.00 0.00 56 1021.6
20260831144213 77 285 6.0 16.0 0.00 0.00 0.00 56 1021.8
20260831143705 77 251 9.0 11.0 0.00 0.00 0.00 55 1021.7
20260831142710 77 291 5.0 11.0 0.00 0.00 0.00 56 1021.8
20260831142239 76 274 6.0 13.0 0.00 0.00 0.00 57 1021.9
20260831141713 76 267 6.0 13.0 0.00 0.00 0.00 57 1021.8
20260831141245 76 275 6.0 13.0 0.00 0.00 0.00 58 1022.0
20260831140711 76 281 8.0 13.0 0.00 0.00 0.00 59 1022.0
20260831140219 76 264 6.0 13.0 0.00 0.00 0.00 58 1022.0
20260831135717 76 270 7.0 13.0 0.00 0.00 0.00 58 1022.0
20260831135213 76 268 8.0 14.0 0.00 0.00 0.00 58 1022.0
20260831134711 76 288 7.0 14.0 0.00 0.00 0.00 59 1022.0